Location: Bagnolo San Vito
(45.0833°N, 10.8833°E)
Time: 23:09:05
(UTC+00:00)

ATLAS CENTAUR R/B - Pass Details

Date: 03 March 2021
Orbit: 475 x 670 km, 64.7° (Epoch: 30 March)

Event Time Altitude Azimuth Distance (km) Brightness Sun altitude
Rises 18:18:14 0° 209° (SSW) 2,523 5.0 -13.4°
Reaches altitude 10° 18:20:22 10° 207° (SSW) 1,640 4.0 -13.8°
Maximum altitude 18:23:59 70° 123° (ESE) 510 0.9 -14.4°
Enters shadow 18:27:02 14° 41° (NE) 1,416 3.1 -15.0°
